Location: Pedholt
(56.0260°N, 10.2097°E)
Time: 01:31:14
(UTC+00:00)

SR - Pass Details

Date: 05 August 2021
Orbit: 581 x 874 km, 66.7° (Epoch: 21 September)

Event Time Altitude Azimuth Distance (km) Brightness Sun altitude
Rises 12:26:21 0° 315° (NW) 3,176 ? 49.1°
Reaches altitude 10° 12:28:50 10° 313° (NW) 2,201 ? 49.0°
Maximum altitude 12:33:46 70° 232° (SW) 716 ? 48.7°
Drops below altitude 10° 12:38:17 10° 149° (SSE) 2,013 ? 48.4°
Sets 12:40:28 0° 147° (SSE) 2,882 ? 48.3°
